Flag for Switzerland Weather past 2 weeks in Winterthur, Switzerland

Now
50 °F

Partly sunny.


Feels Like: 50 °F
Forecast: 31 / 52 °F
Wind: 1 mph from North

Location: Zurich-Kloten

Current Time: Oct 23, 2014 at 4:41:21 PM

Latest Report: Oct 23, 2014 at 3:50 PM


Visibility: N/A

Pressure: 30.24 "Hg

Humidity: 67%

Dew point: 39 °F

Location of WinterthurLocation

Historic Weather in Winterthur — Graph

°F

Winterthur temperature yesterday

Maximum temperature yesterday: 46 °F (at 12:20 AM)
Minimum temperature yesterday: 41 °F (at 5:50 AM)
Average temperature yesterday: 43 °F

Past Weeks' High & Low Weather Summary

 TemperatureHumidityPressure
High75 °F (Oct 9, 2:50 PM)100% (Oct 8, 11:50 PM)30.33 "Hg (Oct 8, 11:50 PM)
Low41 °F (Oct 22, 5:50 AM)44% (Oct 9, 2:50 PM)29.74 "Hg (Oct 21, 7:50 PM)
Average57 °F87%30.00 "Hg
* Reported Oct 8 3:20 PM — Oct 23 3:20 PM, Winterthur, Weather by CustomWeather, © 2014

Note: Actual official high and low records may vary slightly from our data, if they occured in-between our weather recording intervals... More about our weather records

Advertising

Winterthur weather history for previous 24 hours

 ConditionsComfort  
Time TempWeatherWind HumidityBarometerVisibility
3:20 PM
Oct 23
50 °FPartly sunny.5 mph67%30.27 "HgN/A
2:50 PM50 °FPartly sunny.5 mph71%30.27 "HgN/A
2:20 PM50 °FScattered clouds.6 mph71%30.27 "HgN/A
1:50 PM48 °FPartly sunny.7 mph76%30.30 "HgN/A
1:20 PM48 °FPartly sunny.7 mph82%30.30 "HgN/A
12:50 PM46 °FPartly sunny.6 mph82%30.30 "HgN/A
12:20 PM46 °FPartly sunny.5 mph82%30.33 "HgN/A
11:50 AM46 °FPartly sunny.6 mph82%30.33 "HgN/A
11:20 AM46 °FDrizzle. Partly sunny.6 mph82%30.30 "HgN/A
10:50 AM46 °FPartly sunny.5 mph82%30.30 "HgN/A
10:20 AM45 °FPartly sunny.3 mph87%30.30 "HgN/A
9:50 AM45 °FPartly sunny.5 mph87%30.30 "HgN/A
9:20 AM43 °FPartly sunny.5 mph93%30.30 "HgN/A
8:50 AM43 °FPassing clouds.5 mph93%30.30 "HgN/A
8:20 AM43 °FScattered showers. Partly cloudy.6 mph93%30.27 "HgN/A
7:50 AM43 °FSprinkles. Mostly cloudy.6 mph93%30.27 "HgN/A
7:20 AM43 °FScattered showers. Partly cloudy.5 mph93%30.27 "HgN/A
6:50 AM43 °FPartly cloudy.6 mph93%30.27 "HgN/A
6:20 AM43 °FPartly cloudy.3 mph93%30.27 "HgN/A
5:50 AM43 °FPartly cloudy.6 mph93%30.27 "HgN/A
5:20 AM43 °FPassing clouds.6 mph93%30.27 "HgN/A
4:50 AM43 °FPassing clouds.9 mph93%30.27 "HgN/A
4:20 AM43 °FSprinkles. Partly cloudy.12 mph93%30.24 "HgN/A
3:50 AM43 °FPartly cloudy.12 mph93%30.24 "HgN/A
3:20 AM43 °FSprinkles. Partly cloudy.8 mph93%30.24 "HgN/A
2:50 AM43 °FSprinkles. Partly cloudy.12 mph93%30.24 "HgN/A
1:50 AM43 °FPartly cloudy.10 mph93%30.24 "HgN/A
1:20 AM43 °FSprinkles. Partly cloudy.13 mph93%30.21 "HgN/A
12:50 AM43 °FPartly cloudy.12 mph93%30.21 "HgN/A
12:20 AM43 °FSprinkles. Partly cloudy.7 mph93%30.24 "HgN/A
11:50 PM
Oct 22
43 °FSprinkles. Partly cloudy.8 mph93%30.21 "Hg4 mi
11:20 PM43 °FPartly cloudy.8 mph87%30.21 "HgN/A
10:50 PM43 °FSprinkles. Partly cloudy.8 mph93%30.21 "HgN/A
10:20 PM43 °FSprinkles. Partly cloudy.10 mph87%30.21 "HgN/A
9:50 PM43 °FSprinkles. Partly cloudy.12 mph87%30.21 "HgN/A
9:20 PM43 °FSprinkles. Passing clouds.10 mph87%30.21 "HgN/A
8:50 PM43 °FSprinkles. Passing clouds.9 mph87%30.18 "HgN/A
8:20 PM43 °FLots of rain. Passing clouds.8 mph87%30.18 "HgN/A
7:50 PM43 °FPassing clouds.8 mph87%30.18 "HgN/A
7:20 PM43 °FSprinkles. Broken clouds.12 mph87%30.18 "HgN/A
6:50 PM43 °FSprinkles. Partly sunny.12 mph81%30.18 "HgN/A
6:20 PM43 °FScattered showers. Broken clouds.8 mph81%30.18 "HgN/A
5:50 PM43 °FBroken clouds.9 mph81%30.18 "HgN/A
5:20 PM45 °FSprinkles. Broken clouds.10 mph76%30.18 "HgN/A
4:20 PM45 °FScattered showers. Broken clouds.13 mph71%30.18 "HgN/A
Weather by CustomWeather, © 2014

See weather overviewHow to use our weather pages